User: anonymous   Login
Location: Unspecified
(0.0000°N, 0.0000°E)
Time: 05:44:53
(UTC+00:00)
Language:

Snapshot - Orbit

View from above orbital plane
View from above orbital plane
View from above satellite
View from above satellite

Ground track
Ground track

The orbit data is extracted from the following two-line orbital elements,

1 01314U 65027A   15212.32016662  .00000047  00000-0  14916-3 0  9991
2 01314 090.2999 265.7421 0029483 207.7971 214.9023 12.91742077118387
Epoch (UTC): 31 July 2015 07:41:02
Eccentricity: 0.0029483
inclination: 90.2999°
perigee height: 1272 km
apogee height: 1317 km
right ascension of ascending node: 265.7421°
argument of perigee: 207.7971°
revolutions per day: 12.91742077
mean anomaly at epoch: 214.9023°
orbit number at epoch: 11838

The dashed part of the orbit path shows where the satellite is in the earth's shadow,  

DLR